Date,TemperatureHighF,TemperatureAvgF,TemperatureLowF,DewpointHighF,DewpointAvgF,DewpointLowF,HumidityHigh,HumidityAvg,HumidityLow,PressureMaxIn,PressureMinIn,WindSpeedMaxMPH,WindSpeedAvgMPH,GustSpeedMaxMPH,PrecipitationSumIn
2013-12-1,68,57,49,-100,-100,-100,0,0,100,0.00,40.00,0,-999,0,0.00
2013-12-2,69,56,47,-100,-100,-100,0,0,100,0.00,40.00,0,-999,0,0.00
2013-12-3,58,53,45,-100,-100,-100,0,0,100,0.00,40.00,0,-999,0,0.00
2013-12-4,51,43,35,-100,-100,-100,0,0,100,0.00,40.00,0,-999,0,0.00
2013-12-5,51,38,29,-100,-100,-100,0,0,100,0.00,40.00,0,-999,0,0.00
2013-12-6,50,44,37,-100,-100,-100,0,0,100,0.00,40.00,0,-999,0,0.00
2013-12-7,47,43,36,-100,-100,-100,0,0,100,0.00,40.00,0,-999,0,0.00
2013-12-8,44,38,30,-100,-100,-100,0,0,100,0.00,40.00,0,-999,0,0.00
2013-12-9,52,39,29,-100,-100,-100,0,0,100,0.00,40.00,0,-999,0,0.00
2013-12-10,54,44,32,-100,-100,-100,0,0,100,0.00,40.00,0,-999,0,0.00
2013-12-11,58,46,36,-100,-100,-100,0,0,100,0.00,40.00,0,-999,0,0.00
2013-12-12,61,45,34,-100,-100,-100,0,0,100,0.00,40.00,0,-999,0,0.00
2013-12-13,61,48,35,-100,-100,-100,0,0,100,0.00,40.00,0,-999,0,0.00
2013-12-14,62,51,40,-100,-100,-100,0,0,100,0.00,40.00,0,-999,0,0.00
2013-12-15,63,48,36,-100,-100,-100,0,0,100,0.00,40.00,0,-999,0,0.00
2013-12-16,67,51,40,-100,-100,-100,0,0,100,0.00,40.00,0,-999,0,0.00
2013-12-17,65,49,42,-100,-100,-100,0,0,100,0.00,40.00,0,-999,0,0.00
2013-12-18,61,50,43,-100,-100,-100,0,0,100,0.00,40.00,0,-999,0,0.00
2013-12-19,62,51,43,-100,-100,-100,0,0,100,0.00,40.00,0,-999,0,0.00
2013-12-20,64,50,35,-100,-100,-100,0,0,100,0.00,40.00,0,-999,0,0.00
2013-12-21,60,50,42,-100,-100,-100,0,0,100,0.00,40.00,0,-999,0,0.00
2013-12-22,65,52,43,-100,-100,-100,0,0,100,0.00,40.00,0,-999,0,0.00
2013-12-23,65,53,42,-100,-100,-100,0,0,100,0.00,40.00,0,-999,0,0.00
2013-12-24,65,51,41,-100,-100,-100,0,0,100,0.00,40.00,0,-999,0,0.00
2013-12-25,66,52,43,-100,-100,-100,0,0,100,0.00,40.00,0,-999,0,0.00
2013-12-26,69,50,39,-100,-100,-100,0,0,100,0.00,40.00,0,-999,0,0.00
2013-12-27,61,50,40,-100,-100,-100,0,0,100,0.00,40.00,0,-999,0,0.00
2013-12-28,69,46,36,-100,-100,-100,0,0,100,0.00,40.00,0,-999,0,0.00
2013-12-29,65,54,42,-100,-100,-100,0,0,100,0.00,40.00,0,-999,0,0.00
2013-12-30,64,52,39,-100,-100,-100,0,0,100,0.00,40.00,0,-999,0,0.00
2013-12-31,63,48,43,-100,-100,-100,0,0,100,0.00,40.00,0,-999,0,0.00